MDT,Max TemperatureF,Mean TemperatureF,Min TemperatureF,Max Dew PointF,MeanDew PointF,Min DewpointF,Max Humidity, Mean Humidity, Min Humidity, Max Sea Level PressureIn, Mean Sea Level PressureIn, Min Sea Level PressureIn, Max VisibilityMiles, Mean VisibilityMiles, Min VisibilityMiles, Max Wind SpeedMPH, Mean Wind SpeedMPH, Max Gust SpeedMPH,PrecipitationIn, CloudCover, Events, WindDirDegrees
2011-10-1,86,65,44,40,35,29,66,42,17,30.22,30.05,29.96,10,10,10,16,6,22,0.00,0,,118
2011-10-2,88,67,46,39,32,28,53,33,12,30.17,29.99,29.89,10,10,10,14,5,18,0.00,0,,256
2011-10-3,86,69,51,38,34,25,46,29,11,30.13,29.97,29.88,10,10,10,20,5,25,0.00,0,,262
2011-10-4,84,66,48,47,39,35,61,40,18,30.07,29.88,29.75,10,10,10,29,6,38,0.00,1,,164
2011-10-5,79,64,49,45,39,30,80,50,19,29.87,29.65,29.50,10,10,4,22,6,30,0.00,0,,229
2011-10-6,79,65,50,37,31,24,40,28,15,29.66,29.48,29.33,10,10,6,40,23,52,0.00,1,,230
2011-10-7,69,54,38,46,30,21,86,54,22,29.93,29.79,29.67,10,10,6,21,6,26,0.22,4,Rain,264
2011-10-8,55,48,40,45,40,35,93,74,54,30.11,29.93,29.71,10,8,2,25,12,32,0.67,6,Rain,326
2011-10-9,58,50,41,40,37,34,76,60,43,30.18,30.07,29.95,10,10,10,15,6,20,0.00,5,,71
2011-10-10,68,52,35,38,33,24,100,60,20,30.05,29.93,29.81,10,10,10,10,6,14,0.00,0,,314
2011-10-11,74,58,41,38,33,27,82,51,19,29.88,29.77,29.67,10,10,10,26,12,32,0.00,2,,301
2011-10-12,71,57,43,38,32,25,76,47,18,30.08,29.96,29.84,10,10,10,15,6,18,0.00,0,,163
2011-10-13,76,56,36,35,29,17,85,48,11,30.06,29.95,29.81,10,10,10,10,4,16,0.00,0,,157
2011-10-14,67,53,39,35,32,30,79,54,28,30.15,30.01,29.91,10,10,10,13,5,16,0.00,0,,97
2011-10-15,82,59,36,37,31,21,85,48,11,30.12,29.99,29.87,10,10,10,10,4,14,0.00,0,,235
2011-10-16,66,56,45,36,34,30,65,47,29,30.15,29.98,29.89,10,10,10,21,9,24,0.00,0,,104
2011-10-17,65,51,36,41,34,31,85,61,37,30.27,30.03,29.87,10,10,8,48,12,55,T,2,,17
2011-10-18,61,46,31,34,26,21,89,56,22,30.39,30.29,30.22,10,10,10,15,4,18,0.00,1,,360
2011-10-19,61,44,27,28,23,20,75,48,20,30.28,30.14,29.99,10,10,6,13,4,15,0.00,0,,71
2011-10-20,76,53,29,28,22,16,72,41,10,30.07,29.97,29.89,10,10,9,14,6,18,0.00,0,,272
2011-10-21,73,53,32,28,24,19,69,41,13,30.19,30.06,29.98,10,10,10,14,4,15,0.00,0,,245
2011-10-22,74,56,37,28,26,21,59,37,14,30.12,30.05,29.98,10,10,10,14,5,20,0.00,0,,255
2011-10-23,74,54,33,31,25,21,75,45,14,30.12,30.05,29.99,10,10,10,14,6,16,0.00,0,,212
2011-10-24,83,59,34,26,21,11,64,35,6,30.06,29.90,29.74,10,10,8,24,8,33,0.00,0,,265
2011-10-25,74,60,46,34,25,17,60,37,14,30.01,29.85,29.72,10,10,9,25,11,29,T,2,,39
2011-10-26,46,38,29,35,31,25,100,83,65,30.31,30.19,30.03,10,5,0,24,9,28,0.29,8,Fog-Rain-Snow,43
2011-10-27,45,35,25,31,26,23,92,67,41,30.27,30.21,30.14,10,10,9,7,2,8,0.00,2,,267
2011-10-28,56,42,27,32,26,17,92,57,22,30.34,30.26,30.14,10,10,9,13,5,14,0.00,0,,255
2011-10-29,70,51,31,32,23,11,89,50,11,30.12,29.97,29.82,10,10,9,26,10,30,0.00,0,,287
2011-10-30,60,45,30,32,29,27,85,57,28,30.24,30.17,30.01,10,10,10,18,4,21,0.00,0,,271
2011-10-31,75,52,28,32,27,19,92,52,12,30.14,29.98,29.81,10,10,10,22,8,25,0.00,0,,276